• In Czech Republic
  • List of Countries
  • For 7 days
  • Water Temperature
  • Satellite Maps
  • Weather Map
  • Weather Widgets
  • user-avatar
    Login

    Hourly Weather Shibam

    Today, 19 January, Friday

    Time Temperature Precipitation Wind Pressure Humidity
    00:00 +9°C° 0 mm 0 mps 559 mmHg 61%
    01:00 +9°C° 0 mm 0 mps 559 mmHg 62%
    02:00 +8°C° 0 mm 0 mps 558 mmHg 63%
    03:00 +8°C° 0 mm 0 mps 558 mmHg 65%
    04:00 +7°C° 0 mm 0 mps 558 mmHg 68%
    05:00 +7°C° 0 mm 0 mps 558 mmHg 70%
    06:00 +6°C° 0 mm 0 mps 557 mmHg 73%
    07:00 +9°C° 0 mm 1 mps 559 mmHg 64%
    08:00 +11°C° 0 mm 1 mps 560 mmHg 55%
    09:00 +13°C° 0 mm 1 mps 561 mmHg 43%
    10:00 +14°C° 0 mm 2 mps 562 mmHg 39%
    11:00 +15°C° 0 mm 2 mps 562 mmHg 35%
    12:00 +16°C° 0 mm 3 mps 562 mmHg 31%
    13:00 +17°C° 0 mm 3 mps 562 mmHg 32%
    14:00 +17°C° 0 mm 4 mps 562 mmHg 33%
    15:00 +17°C° 0 mm 4 mps 562 mmHg 34%
    16:00 +16°C° 0 mm 3 mps 561 mmHg 40%
    17:00 +14°C° 0 mm 3 mps 561 mmHg 46%
    18:00 +13°C° 0 mm 3 mps 561 mmHg 53%
    19:00 +13°C° 0 mm 2 mps 561 mmHg 58%
    20:00 +13°C° 0 mm 2 mps 561 mmHg 63%
    21:00 +12°C° 0 mm 1 mps 561 mmHg 68%
    22:00 +12°C° 0 mm 1 mps 561 mmHg 71%
    23:00 +11°C° 0 mm 1 mps 560 mmHg 73%

    Tomorrow, 20 January, Saturday

    Time Temperature Precipitation Wind Pressure Humidity
    00:00 +11°C° 0 mm 1 mps 560 mmHg 75%
    01:00 +10°C° 0 mm 1 mps 560 mmHg 77%
    02:00 +10°C° 0 mm 1 mps 559 mmHg 79%
    03:00 +8°C° 0 mm 0 mps 559 mmHg 81%
    04:00 +8°C° 0 mm 0 mps 559 mmHg 83%
    05:00 +7°C° 0 mm 0 mps 559 mmHg 84%
    06:00 +7°C° 0 mm 0 mps 559 mmHg 85%
    07:00 +8°C° 0 mm 0 mps 560 mmHg 74%
    08:00 +10°C° 0 mm 0 mps 561 mmHg 64%
    09:00 +12°C° 0 mm 1 mps 562 mmHg 54%
    10:00 +14°C° 0 mm 1 mps 562 mmHg 48%
    11:00 +15°C° 0 mm 2 mps 563 mmHg 43%
    12:00 +16°C° 0 mm 2 mps 563 mmHg 37%
    13:00 +16°C° 0 mm 2 mps 563 mmHg 39%
    14:00 +16°C° 0 mm 3 mps 562 mmHg 40%
    15:00 +17°C° 0 mm 3 mps 562 mmHg 41%
    16:00 +16°C° 0 mm 3 mps 562 mmHg 47%
    17:00 +14°C° 0 mm 3 mps 562 mmHg 52%
    18:00 +14°C° 0 mm 2 mps 561 mmHg 58%
    19:00 +13°C° 0 mm 2 mps 562 mmHg 60%
    20:00 +13°C° 0 mm 2 mps 562 mmHg 62%
    21:00 +12°C° 0 mm 2 mps 562 mmHg 64%
    22:00 +12°C° 0 mm 2 mps 562 mmHg 62%
    23:00 +12°C° 0 mm 2 mps 562 mmHg 60%

    Day after tomorrow, 21 January, Sunday

    Time Temperature Precipitation Wind Pressure Humidity
    00:00 +12°C° 0 mm 2 mps 562 mmHg 58%
    01:00 +10°C° 0 mm 2 mps 561 mmHg 56%
    02:00 +10°C° 0 mm 2 mps 561 mmHg 54%
    03:00 +10°C° 0 mm 1 mps 560 mmHg 52%
    04:00 +10°C° 0 mm 1 mps 560 mmHg 51%
    05:00 +8°C° 0 mm 2 mps 560 mmHg 51%
    06:00 +8°C° 0 mm 2 mps 560 mmHg 50%
    07:00 +9°C° 0 mm 2 mps 561 mmHg 47%
    08:00 +10°C° 0 mm 2 mps 562 mmHg 44%
    09:00 +12°C° 0 mm 2 mps 563 mmHg 41%
    10:00 +13°C° 0 mm 2 mps 563 mmHg 38%
    11:00 +14°C° 0 mm 2 mps 564 mmHg 36%
    12:00 +16°C° 0 mm 2 mps 564 mmHg 33%
    13:00 +16°C° 0 mm 2 mps 564 mmHg 35%
    14:00 +16°C° 0 mm 2 mps 563 mmHg 36%
    15:00 +17°C° 0 mm 2 mps 563 mmHg 37%
    16:00 +16°C° 0 mm 2 mps 563 mmHg 42%
    17:00 +15°C° 0 mm 2 mps 562 mmHg 46%
    18:00 +14°C° 0 mm 2 mps 562 mmHg 50%
    19:00 +13°C° 0 mm 2 mps 562 mmHg 50%
    20:00 +13°C° 0 mm 2 mps 562 mmHg 49%
    21:00 +12°C° 0 mm 2 mps 563 mmHg 49%
    22:00 +12°C° 0 mm 1 mps 562 mmHg 48%
    23:00 +11°C° 0 mm 1 mps 562 mmHg 47%

    22 January, Monday

    Time Temperature Precipitation Wind Pressure Humidity
    00:00 +11°C° 0 mm 1 mps 562 mmHg 46%
    01:00 +10°C° 0 mm 1 mps 561 mmHg 46%
    02:00 +10°C° 0 mm 1 mps 560 mmHg 47%
    03:00 +9°C° 0 mm 1 mps 560 mmHg 47%
    04:00 +9°C° 0 mm 1 mps 560 mmHg 47%
    05:00 +8°C° 0 mm 1 mps 560 mmHg 48%
    06:00 +8°C° 0 mm 1 mps 559 mmHg 48%
    07:00 +9°C° 0 mm 1 mps 560 mmHg 43%
    08:00 +11°C° 0 mm 1 mps 562 mmHg 39%
    09:00 +12°C° 0 mm 1 mps 563 mmHg 34%
    10:00 +14°C° 0 mm 1 mps 563 mmHg 32%
    11:00 +15°C° 0 mm 2 mps 563 mmHg 30%
    12:00 +17°C° 0 mm 2 mps 564 mmHg 28%
    13:00 +17°C° 0 mm 2 mps 563 mmHg 28%
    14:00 +17°C° 0 mm 3 mps 562 mmHg 28%
    15:00 +18°C° 0 mm 3 mps 562 mmHg 29%
    16:00 +17°C° 0 mm 3 mps 562 mmHg 34%
    17:00 +16°C° 0 mm 3 mps 561 mmHg 39%
    18:00 +15°C° 0 mm 2 mps 561 mmHg 44%
    19:00 +14°C° 0 mm 2 mps 561 mmHg 48%
    20:00 +13°C° 0 mm 1 mps 561 mmHg 52%
    21:00 +13°C° 0 mm 1 mps 561 mmHg 56%
    22:00 +11°C° 0 mm 0 mps 561 mmHg 56%
    23:00 +11°C° 0 mm 0 mps 560 mmHg 57%

    23 January, Tuesday

    Time Temperature Precipitation Wind Pressure Humidity
    00:00 +10°C° 0 mm 0 mps 560 mmHg 57%
    01:00 +10°C° 0 mm 0 mps 559 mmHg 60%
    02:00 +9°C° 0 mm 0 mps 559 mmHg 62%
    03:00 +9°C° 0 mm 0 mps 558 mmHg 65%
    04:00 +8°C° 0 mm 0 mps 558 mmHg 66%
    05:00 +8°C° 0 mm 0 mps 558 mmHg 68%
    06:00 +7°C° 0 mm 0 mps 558 mmHg 69%
    07:00 +9°C° 0 mm 0 mps 559 mmHg 56%
    08:00 +11°C° 0 mm 0 mps 561 mmHg 44%
    09:00 +13°C° 0 mm 0 mps 562 mmHg 31%
    10:00 +15°C° 0 mm 1 mps 562 mmHg 27%
    11:00 +17°C° 0 mm 2 mps 563 mmHg 23%
    12:00 +18°C° 0 mm 2 mps 563 mmHg 18%
    13:00 +18°C° 0 mm 3 mps 562 mmHg 20%
    14:00 +18°C° 0 mm 3 mps 562 mmHg 21%
    15:00 +19°C° 0 mm 3 mps 562 mmHg 23%
    16:00 +18°C° 0 mm 3 mps 561 mmHg 28%
    17:00 +16°C° 0 mm 3 mps 561 mmHg 34%
    18:00 +14°C° 0 mm 3 mps 561 mmHg 40%
    19:00 +15°C° 0 mm 2 mps 561 mmHg 45%
    20:00 +14°C° 0 mm 1 mps 560 mmHg 49%
    21:00 +13°C° 0 mm 1 mps 560 mmHg 54%
    22:00 +12°C° 0 mm 1 mps 560 mmHg 55%
    23:00 +12°C° 0 mm 1 mps 560 mmHg 56%

    24 January, Wednesday

    Time Temperature Precipitation Wind Pressure Humidity
    00:00 +10°C° 0 mm 0 mps 559 mmHg 56%
    01:00 +9°C° 0 mm 0 mps 559 mmHg 58%
    02:00 +9°C° 0 mm 0 mps 558 mmHg 60%
    03:00 +8°C° 0 mm 0 mps 558 mmHg 62%
    04:00 +8°C° 0 mm 0 mps 558 mmHg 63%
    05:00 +7°C° 0 mm 0 mps 557 mmHg 63%
    06:00 +7°C° 0 mm 0 mps 557 mmHg 64%
    07:00 +10°C° 0 mm 1 mps 559 mmHg 56%
    08:00 +11°C° 0 mm 1 mps 560 mmHg 48%
    09:00 +13°C° 0 mm 1 mps 561 mmHg 41%
    10:00 +14°C° 0 mm 1 mps 562 mmHg 37%
    11:00 +16°C° 0 mm 2 mps 562 mmHg 34%
    12:00 +17°C° 0 mm 2 mps 562 mmHg 31%
    13:00 +17°C° 0 mm 2 mps 562 mmHg 33%
    14:00 +17°C° 0 mm 2 mps 561 mmHg 35%
    15:00 +17°C° 0 mm 3 mps 561 mmHg 38%
    16:00 +16°C° 0.1 mm 2 mps 561 mmHg 41%
    17:00 +15°C° 0.1 mm 2 mps 561 mmHg 45%
    18:00 +14°C° 0.1 mm 2 mps 561 mmHg 48%
    19:00 +14°C° 0 mm 2 mps 561 mmHg 49%
    20:00 +13°C° 0 mm 2 mps 561 mmHg 50%
    21:00 +12°C° 0 mm 1 mps 561 mmHg 51%
    22:00 +12°C° 0 mm 1 mps 560 mmHg 51%
    23:00 +11°C° 0 mm 1 mps 560 mmHg 50%
    Show more